Rechercher aéroport 
image banner adimage banner adimage banner ad
image banner ad

KDAG - Barstow-Daggett

Situé à Daggett, United States

ICAO - DAG, IATA - DAG

Données fournies par Airmate  

Information générale

Coordonnées: N34°51'13" W116°47'12"
Élévation : 1930 feet MSL.
Variation magnétique : 15° East
Voir autres Aéroports à California

Données opérationnelles

Special qualification required
Heure actuelle UTC:
Heure actuelle locale:
Météo
METAR: KDAG 292350Z AUTO 00000KT 10SM CLR 39/09 A2981 RMK AO2 SLP061 T03940094 10411 20350 56026
TAF: KDAG 292334Z 3000/3024 36006KT P6SM SCT120 FM300300 25014KT P6SM SCT120 BKN250 FM301200 VRB06KT P6SM SCT120 BKN200 FM301700 12012G22KT P6SM VCTS SCT120CB BKN200
Voir NOTAMs / SUP AIP / TFR affectant cet aéroport [VIEW]
Fréquences de communication: [VIEW]

Pistes:

Identifiant RWYQFULongueur (ft)Largeur (ft)SurfaceLDA (ft)
0450°5123100ASPH
22230°5123100ASPH
0889°6402150ASPH
26270°6402150ASPH

Coordonnées de l'aéroport

Adresse: Daggett United States

Vue satellite de KDAG